Simultaneous Nadir Overpasses (SNOs) Predictions

Prediction of SNOs between GOES-17 and TERRA Satellite Orbit:

Table of predicted SNOs for the next 14.0 days since TLE Epoch: 9/14/2019
Index Date Time (GOES-17) GOES-17 Lat,Lon TERRA Lat,Lon Distance(km) Time Diff (sec)
1 09/14/2019 19:27:31 0.01,-137.16 -0.66,-134.11 347.60 80
2 09/15/2019 07:48:54 -0.01,-137.16 -0.46,-139.30 243.72 80
3 09/17/2019 07:34:05 -0.01,-137.13 0.18,-136.35 89.20 80
4 09/17/2019 19:55:20 0.01,-137.13 0.92,-141.51 497.95 80
5 09/19/2019 07:21:55 -0.02,-137.10 0.77,-133.40 421.15 80
6 09/19/2019 19:43:10 0.02,-137.10 0.33,-138.56 166.25 80
7 09/21/2019 19:33:41 0.03,-137.06 -0.27,-135.61 164.08 80
8 09/22/2019 07:55:06 -0.03,-137.04 -0.84,-140.81 428.15 80
9 09/23/2019 19:21:34 0.03,-137.01 -0.88,-132.67 493.03 80
10 09/24/2019 07:42:58 -0.03,-136.99 -0.23,-137.86 99.52 80
11 09/26/2019 07:28:11 -0.02,-136.93 0.39,-134.93 228.12 80
12 09/26/2019 19:49:28 0.02,-136.92 0.70,-140.09 360.57 80




NCC Satellite Simultaneous Nadir Overpasses (SNOs) Prediction Service
